Tracking 30995 objects as of 5-Jul-2025
HD Live streaming from Space Station
objects crossing your sky now

SL-14 DEB

Track SL-14 DEB now!
10-day predictions


NORAD ID: 25221
Int'l Code: 1987-068AY
Perigee: 938.3 km
Apogee: 1,181.3 km
Inclination: 82.3 °
Period: 106.2 minutes
Semi major axis: 7430 km
RCS: 0.077 m2 (small)
Launch date: August 18, 1987
Source: Commonwealth of Independent States (former USSR) (CIS)
Launch site: PLESETSK MISSILE AND SPACE COMPLEX (PKMTR)

Note: This is SATELLITE DEBRIS
Your satellite tracking list
INTELSAT 21
Track 1 satellite(s)




NASA's NSSDC Master Catalog

Two Line Element Set (TLE):
1 25221U 87068AY  25186.54946086  .00000306  00000-0  39085-3 0  9992
2 25221  82.2985   6.6414 0163551 270.0485 145.0619 13.55341474351345
Source of the keplerian elements: AFSPC